Zurück zum Katalog

METEOR 1-13

AktivWetterPO
NORAD 6256·PAYLOAD·🇷🇺 Russia

Gestartet Oct 26, 1972 von Plesetsk Cosmodrome

Loading…

Nächste Überflüge (nächste 24 Stunden)

TLE

AktuellSource: Space-Track

Epoche: Sep 14, 2026, 10:04 UTC

1 06256U 72085A   26257.42006884  .00000053  00000-0  23163-4 0  9992
2 06256  81.2692  66.3467 0024381 244.6647 115.1999 14.09491405767442

Verfolge METEOR 1-13 in Echtzeit mit AllMySat

Download on the App Store